Location: DARK SKY Beskydy - Park tmavé oblohy, www.darkskybeskydy.cz
(49.4926°N, 18.5016°E)
Time: 06:27:00
(UTC+02:00)

Vanguard 1 - Pass Details

Date: 24 February 2024
Orbit: 650 x 3821 km, 34.2° (Epoch: 19 April)

Event Time Altitude Azimuth Distance (km) Brightness Sun altitude
Rises 00:18:25 0° 271° (W) 7,110 14.4 -50.0°
Reaches altitude 10° 00:23:07 10° 265° (W) 6,391 14.0 -49.9°
Enters shadow 00:26:58 18° 259° (W) 5,866 13.7 -49.8°
Maximum altitude 00:42:47 43° 204° (SSW) 4,718 - -49.2°
Drops below altitude 10° 01:02:04 10° 142° (SE) 6,239 - -48.1°
Exits shadow 01:03:31 - 140° (SE) 6,452 14.0 -48.0°
Sets 01:06:38 0° 136° (SE) 6,931 14.3 -47.8°
